Time,TemperatureF,DewpointF,PressureIn,WindDirection,WindDirectionDegrees,WindSpeedMPH,WindSpeedGustMPH,Humidity,HourlyPrecipIn,Conditions,Clouds,dailyrainin,SoftwareType,DateUTC
2013-05-22 00:04:00,70.0,68.0,29.95,North,0,0.0,2.0,92,0.00,,,0.09,,2013-05-22 04:04:00,
2013-05-22 00:13:00,70.0,68.0,29.95,North,0,0.0,2.0,92,0.00,,,0.09,,2013-05-22 04:13:00,
2013-05-22 00:23:00,70.0,68.0,29.96,North,0,0.0,1.0,93,0.00,,,0.09,,2013-05-22 04:23:00,
2013-05-22 00:33:00,70.0,68.0,29.96,North,0,0.0,2.0,94,0.00,,,0.09,,2013-05-22 04:33:00,
2013-05-22 00:43:00,70.0,68.0,29.96,North,0,0.0,4.0,95,0.00,,,0.08,,2013-05-22 04:43:00,
2013-05-22 00:53:00,70.0,68.0,29.96,North,0,0.0,4.0,95,0.00,,,0.08,,2013-05-22 04:53:00,
2013-05-22 01:02:00,70.0,68.0,29.96,North,0,0.0,3.0,95,0.00,,,0.08,,2013-05-22 05:02:00,
2013-05-22 01:12:00,70.0,68.0,29.96,North,0,0.0,3.0,95,0.00,,,0.08,,2013-05-22 05:12:00,
2013-05-22 01:21:00,70.0,68.0,29.96,North,0,0.0,3.0,95,0.00,,,0.08,,2013-05-22 05:21:00,
2013-05-22 01:32:00,70.0,68.0,29.96,SSE,160,2.0,5.0,95,0.00,,,0.08,,2013-05-22 05:32:00,
2013-05-22 01:42:00,71.0,69.0,29.96,SSE,152,4.0,9.0,94,0.00,,,0.08,,2013-05-22 05:42:00,
2013-05-22 01:52:00,71.0,69.0,29.96,SSE,152,4.0,9.0,94,0.00,,,0.08,,2013-05-22 05:52:00,
2013-05-22 02:01:00,71.0,69.0,29.96,SSE,152,4.0,9.0,94,0.00,,,0.08,,2013-05-22 06:01:00,
2013-05-22 02:12:00,71.0,69.0,29.95,SE,141,1.0,6.0,94,0.00,,,0.08,,2013-05-22 06:12:00,
2013-05-22 02:21:00,71.0,69.0,29.95,SE,141,1.0,6.0,94,0.00,,,0.08,,2013-05-22 06:21:00,
2013-05-22 02:32:00,71.0,69.0,29.95,SSW,202,2.0,6.0,93,0.00,,,0.08,,2013-05-22 06:32:00,
2013-05-22 02:42:00,71.0,69.0,29.95,SSE,160,1.0,6.0,92,0.00,,,0.07,,2013-05-22 06:42:00,
2013-05-22 02:52:00,71.0,69.0,29.95,SSE,160,1.0,6.0,92,0.00,,,0.07,,2013-05-22 06:52:00,
2013-05-22 03:01:00,71.0,69.0,29.96,SE,131,1.0,5.0,92,0.00,,,0.07,,2013-05-22 07:01:00,
2013-05-22 03:11:00,71.0,69.0,29.96,SE,131,1.0,5.0,92,0.00,,,0.07,,2013-05-22 07:11:00,
2013-05-22 03:21:00,71.0,69.0,29.95,SSE,159,1.0,5.0,92,0.00,,,0.07,,2013-05-22 07:21:00,
2013-05-22 03:32:00,71.0,68.0,29.95,SE,131,1.0,4.0,91,0.00,,,0.07,,2013-05-22 07:32:00,
2013-05-22 03:42:00,71.0,68.0,29.95,SE,131,1.0,4.0,91,0.00,,,0.07,,2013-05-22 07:42:00,
2013-05-22 03:52:00,71.0,68.0,29.94,SE,145,3.0,5.0,91,0.00,,,0.07,,2013-05-22 07:52:00,
2013-05-22 04:02:00,71.0,68.0,29.94,South,177,1.0,5.0,91,0.00,,,0.07,,2013-05-22 08:02:00,
2013-05-22 04:11:00,71.0,68.0,29.94,South,177,1.0,5.0,91,0.00,,,0.07,,2013-05-22 08:11:00,
2013-05-22 04:22:00,71.0,68.0,29.94,SE,141,2.0,6.0,91,0.00,,,0.07,,2013-05-22 08:22:00,
2013-05-22 04:32:00,71.0,68.0,29.93,South,177,2.0,6.0,91,0.00,,,0.07,,2013-05-22 08:32:00,
2013-05-22 04:42:00,71.0,68.0,29.93,SSE,151,4.0,7.0,91,0.00,,,0.06,,2013-05-22 08:42:00,
2013-05-22 04:52:00,71.0,68.0,29.93,SSE,151,4.0,7.0,91,0.00,,,0.06,,2013-05-22 08:52:00,
2013-05-22 05:01:00,71.0,68.0,29.93,North,0,0.0,9.0,91,0.01,,,0.07,,2013-05-22 09:01:00,
2013-05-22 05:12:00,71.0,68.0,29.93,North,0,0.0,9.0,91,0.01,,,0.07,,2013-05-22 09:12:00,
2013-05-22 05:22:00,71.0,69.0,29.93,SSE,149,1.0,5.0,92,0.01,,,0.07,,2013-05-22 09:22:00,
2013-05-22 05:33:00,71.0,68.0,29.93,SSE,149,2.0,4.0,91,0.01,,,0.07,,2013-05-22 09:33:00,
2013-05-22 05:42:00,71.0,68.0,29.93,SSE,149,2.0,4.0,91,0.01,,,0.07,,2013-05-22 09:42:00,
2013-05-22 05:53:00,71.0,68.0,29.93,SSE,152,1.0,5.0,91,0.01,,,0.07,,2013-05-22 09:53:00,
2013-05-22 06:03:00,71.0,68.0,29.93,SSE,149,2.0,6.0,91,0.00,,,0.07,,2013-05-22 10:03:00,
2013-05-22 06:12:00,70.0,67.0,29.93,SSW,192,2.0,10.0,91,0.00,,,0.07,,2013-05-22 10:12:00,
2013-05-22 06:23:00,70.0,67.0,29.93,SSW,192,2.0,10.0,91,0.00,,,0.07,,2013-05-22 10:23:00,
2013-05-22 06:33:00,70.0,67.0,29.94,South,171,3.0,7.0,91,0.00,,,0.07,,2013-05-22 10:33:00,
2013-05-22 06:42:00,70.0,67.0,29.95,SSE,157,3.0,8.0,91,0.00,,,0.07,,2013-05-22 10:42:00,
2013-05-22 06:52:00,70.0,67.0,29.95,SSE,157,3.0,8.0,91,0.00,,,0.07,,2013-05-22 10:52:00,
2013-05-22 07:02:00,70.0,67.0,29.95,SSE,163,3.0,11.0,91,0.00,,,0.07,,2013-05-22 11:02:00,
2013-05-22 07:12:00,70.0,67.0,29.96,SE,145,3.0,6.0,91,0.00,,,0.06,,2013-05-22 11:12:00,
2013-05-22 07:22:00,70.0,67.0,29.96,SE,145,3.0,6.0,91,0.00,,,0.06,,2013-05-22 11:22:00,
2013-05-22 07:32:00,70.0,68.0,29.96,South,183,2.0,8.0,92,0.00,,,0.06,,2013-05-22 11:32:00,
2013-05-22 07:42:00,70.0,67.0,29.96,SSE,164,2.0,7.0,91,0.00,,,0.06,,2013-05-22 11:42:00,
2013-05-22 07:53:00,70.0,67.0,29.96,SSE,164,2.0,7.0,91,0.00,,,0.06,,2013-05-22 11:53:00,
2013-05-22 08:02:00,70.0,68.0,29.97,SSE,156,2.0,7.0,92,0.00,,,0.06,,2013-05-22 12:02:00,
2013-05-22 08:12:00,70.0,68.0,29.97,SSE,156,2.0,7.0,92,0.00,,,0.06,,2013-05-22 12:12:00,
2013-05-22 08:22:00,70.0,67.0,29.97,SSE,147,1.0,6.0,91,0.00,,,0.06,,2013-05-22 12:22:00,
2013-05-22 08:32:00,70.0,67.0,29.97,SSE,147,1.0,6.0,91,0.00,,,0.06,,2013-05-22 12:32:00,
2013-05-22 08:42:00,71.0,68.0,29.98,South,179,2.0,8.0,90,0.00,,,0.06,,2013-05-22 12:42:00,
2013-05-22 08:52:00,71.0,68.0,29.98,South,179,2.0,8.0,90,0.00,,,0.06,,2013-05-22 12:52:00,
2013-05-22 09:01:00,72.0,68.0,29.98,SE,134,2.0,7.0,88,0.00,,,0.06,,2013-05-22 13:01:00,
2013-05-22 09:12:00,72.0,68.0,29.98,SE,134,2.0,7.0,88,0.00,,,0.06,,2013-05-22 13:12:00,
2013-05-22 09:22:00,71.0,67.0,29.99,SSE,159,2.0,8.0,88,0.00,,,0.06,,2013-05-22 13:22:00,
2013-05-22 09:32:00,71.0,68.0,29.99,SSE,151,2.0,5.0,89,0.00,,,0.06,,2013-05-22 13:32:00,
2013-05-22 09:42:00,71.0,67.0,29.99,South,186,2.0,8.0,88,0.00,,,0.06,,2013-05-22 13:42:00,
2013-05-22 09:52:00,71.0,67.0,29.99,South,186,2.0,8.0,88,0.00,,,0.06,,2013-05-22 13:52:00,
2013-05-22 10:02:00,72.0,68.0,29.99,SSE,161,3.0,6.0,88,0.00,,,0.05,,2013-05-22 14:02:00,
2013-05-22 10:11:00,72.0,68.0,29.99,ESE,116,3.0,8.0,86,0.00,,,0.05,,2013-05-22 14:11:00,
2013-05-22 10:21:00,72.0,68.0,29.99,ESE,116,3.0,8.0,86,0.00,,,0.05,,2013-05-22 14:21:00,
2013-05-22 10:32:00,73.0,69.0,29.98,SSE,149,4.0,8.0,86,0.00,,,0.05,,2013-05-22 14:32:00,
2013-05-22 10:42:00,73.0,69.0,29.98,SSE,149,4.0,8.0,86,0.00,,,0.05,,2013-05-22 14:42:00,
2013-05-22 10:53:00,73.0,69.0,29.98,SSE,149,4.0,8.0,86,0.00,,,0.05,,2013-05-22 14:53:00,
2013-05-22 11:01:00,74.0,68.0,29.99,East,97,1.0,6.0,82,0.00,,,0.05,,2013-05-22 15:01:00,
2013-05-22 11:11:00,74.0,68.0,30.00,SSE,151,2.0,6.0,83,0.00,,,0.05,,2013-05-22 15:11:00,
2013-05-22 11:22:00,74.0,68.0,30.00,SSE,151,2.0,6.0,83,0.00,,,0.05,,2013-05-22 15:22:00,
2013-05-22 11:32:00,75.0,69.0,30.00,North,0,0.0,3.0,82,0.00,,,0.05,,2013-05-22 15:32:00,
2013-05-22 11:42:00,75.0,69.0,30.00,North,0,0.0,3.0,82,0.00,,,0.05,,2013-05-22 15:42:00,
2013-05-22 11:53:00,75.0,69.0,30.00,North,0,0.0,5.0,82,0.00,,,0.05,,2013-05-22 15:53:00,
2013-05-22 12:03:00,76.0,69.0,30.00,NW,324,1.0,9.0,78,0.00,,,0.05,,2013-05-22 16:03:00,
2013-05-22 12:12:00,76.0,69.0,30.00,NW,324,1.0,9.0,78,0.00,,,0.05,,2013-05-22 16:12:00,
2013-05-22 12:23:00,76.0,69.0,29.99,NNW,327,2.0,10.0,79,0.00,,,0.04,,2013-05-22 16:23:00,
2013-05-22 12:33:00,77.0,69.0,29.98,SSE,155,2.0,7.0,77,0.00,,,0.04,,2013-05-22 16:33:00,
2013-05-22 12:42:00,77.0,69.0,29.98,NNE,13,2.0,9.0,76,0.00,,,0.04,,2013-05-22 16:42:00,
2013-05-22 12:52:00,77.0,69.0,29.98,NNE,13,2.0,9.0,76,0.00,,,0.04,,2013-05-22 16:52:00,
2013-05-22 13:02:00,79.0,69.0,29.97,East,91,2.0,7.0,72,0.01,,,0.05,,2013-05-22 17:02:00,
2013-05-22 13:11:00,79.0,69.0,29.97,WSW,239,1.0,8.0,72,0.01,,,0.05,,2013-05-22 17:11:00,
2013-05-22 13:23:00,79.0,69.0,29.97,WSW,239,1.0,8.0,72,0.01,,,0.05,,2013-05-22 17:23:00,
2013-05-22 13:33:00,79.0,70.0,29.96,SSW,207,2.0,8.0,73,0.01,,,0.05,,2013-05-22 17:33:00,
2013-05-22 13:42:00,79.0,70.0,29.96,SSW,207,2.0,8.0,73,0.01,,,0.05,,2013-05-22 17:42:00,
2013-05-22 13:54:00,81.0,71.0,29.95,SE,137,4.0,10.0,72,0.01,,,0.05,,2013-05-22 17:54:00,
2013-05-22 14:02:00,81.0,70.0,29.94,SSE,154,3.0,10.0,69,0.00,,,0.05,,2013-05-22 18:02:00,
2013-05-22 14:14:00,82.0,70.0,29.93,SE,142,4.0,10.0,68,0.00,,,0.05,,2013-05-22 18:14:00,
2013-05-22 14:22:00,82.0,70.0,29.93,SE,142,4.0,10.0,68,0.00,,,0.05,,2013-05-22 18:22:00,
2013-05-22 14:34:00,82.0,69.0,29.93,South,177,4.0,11.0,66,0.00,,,0.04,,2013-05-22 18:34:00,
2013-05-22 14:42:00,82.0,69.0,29.93,South,177,4.0,11.0,66,0.00,,,0.04,,2013-05-22 18:42:00,
2013-05-22 14:52:00,82.0,69.0,29.93,South,177,4.0,11.0,66,0.00,,,0.04,,2013-05-22 18:52:00,
2013-05-22 15:02:00,82.0,69.0,29.92,SSW,193,2.0,13.0,66,0.00,,,0.04,,2013-05-22 19:02:00,
2013-05-22 15:11:00,83.0,70.0,29.91,SSE,166,5.0,12.0,64,0.00,,,0.04,,2013-05-22 19:11:00,
2013-05-22 15:22:00,83.0,70.0,29.91,SSE,166,5.0,12.0,64,0.00,,,0.04,,2013-05-22 19:22:00,
2013-05-22 15:32:00,83.0,69.0,29.91,SSE,148,3.0,9.0,63,0.00,,,0.04,,2013-05-22 19:32:00,
2013-05-22 15:42:00,84.0,70.0,29.91,SW,214,2.0,12.0,62,0.00,,,0.04,,2013-05-22 19:42:00,
2013-05-22 15:52:00,84.0,70.0,29.91,SW,214,2.0,12.0,62,0.00,,,0.04,,2013-05-22 19:52:00,
2013-05-22 16:02:00,84.0,70.0,29.91,SSE,155,2.0,11.0,62,0.00,,,0.04,,2013-05-22 20:02:00,
2013-05-22 16:11:00,84.0,69.0,29.90,SSE,163,2.0,11.0,61,0.00,,,0.04,,2013-05-22 20:11:00,
2013-05-22 16:22:00,84.0,69.0,29.90,SSE,163,2.0,11.0,61,0.00,,,0.04,,2013-05-22 20:22:00,
2013-05-22 16:32:00,84.0,69.0,29.89,SSE,154,3.0,7.0,61,0.00,,,0.04,,2013-05-22 20:32:00,
2013-05-22 16:42:00,84.0,70.0,29.89,SSE,162,4.0,12.0,62,0.00,,,0.04,,2013-05-22 20:42:00,
2013-05-22 16:52:00,84.0,70.0,29.89,SSE,162,4.0,12.0,62,0.00,,,0.04,,2013-05-22 20:52:00,
2013-05-22 17:01:00,83.0,69.0,29.88,SSE,156,5.0,9.0,63,0.00,,,0.03,,2013-05-22 21:01:00,
2013-05-22 17:11:00,82.0,69.0,29.88,SSE,156,3.0,11.0,66,0.00,,,0.03,,2013-05-22 21:11:00,
2013-05-22 17:21:00,82.0,69.0,29.88,SSE,156,3.0,11.0,66,0.00,,,0.03,,2013-05-22 21:21:00,
2013-05-22 17:32:00,81.0,69.0,29.88,North,0,0.0,5.0,68,0.00,,,0.03,,2013-05-22 21:32:00,
2013-05-22 17:42:00,81.0,69.0,29.88,North,0,0.0,5.0,68,0.00,,,0.03,,2013-05-22 21:42:00,
2013-05-22 17:53:00,80.0,69.0,29.88,North,0,0.0,5.0,70,0.00,,,0.03,,2013-05-22 21:53:00,
2013-05-22 18:03:00,81.0,71.0,29.87,North,0,0.0,4.0,71,0.00,,,0.03,,2013-05-22 22:03:00,
2013-05-22 18:13:00,81.0,71.0,29.87,North,0,0.0,4.0,71,0.00,,,0.03,,2013-05-22 22:13:00,
2013-05-22 18:22:00,81.0,71.0,29.87,North,0,0.0,4.0,71,0.00,,,0.03,,2013-05-22 22:22:00,
2013-05-22 18:33:00,81.0,69.0,29.87,SE,140,2.0,9.0,68,0.00,,,0.03,,2013-05-22 22:33:00,
2013-05-22 18:42:00,80.0,69.0,29.87,North,0,0.0,4.0,70,0.00,,,0.03,,2013-05-22 22:42:00,
2013-05-22 18:52:00,80.0,69.0,29.87,North,0,0.0,4.0,70,0.00,,,0.03,,2013-05-22 22:52:00,
2013-05-22 19:02:00,80.0,70.0,29.88,North,0,0.0,5.0,71,0.00,,,0.03,,2013-05-22 23:02:00,
2013-05-22 19:12:00,79.0,69.0,29.88,SSE,164,1.0,12.0,71,0.00,,,0.03,,2013-05-22 23:12:00,
2013-05-22 19:21:00,79.0,69.0,29.88,SSE,164,1.0,12.0,71,0.00,,,0.03,,2013-05-22 23:21:00,
2013-05-22 19:32:00,78.0,69.0,29.88,North,0,0.0,5.0,74,0.00,,,0.03,,2013-05-22 23:32:00,
2013-05-22 19:42:00,78.0,70.0,29.88,South,173,1.0,3.0,76,0.00,,,0.03,,2013-05-22 23:42:00,
2013-05-22 19:52:00,78.0,70.0,29.88,South,173,1.0,3.0,76,0.00,,,0.03,,2013-05-22 23:52:00,
2013-05-22 20:01:00,77.0,71.0,29.88,North,0,0.0,2.0,82,0.00,,,0.03,,2013-05-23 00:01:00,
2013-05-22 20:11:00,77.0,71.0,29.88,North,0,0.0,2.0,82,0.00,,,0.03,,2013-05-23 00:11:00,
2013-05-22 20:22:00,77.0,71.0,29.88,North,0,0.0,2.0,82,0.00,,,0.03,,2013-05-23 00:22:00,
2013-05-22 20:32:00,75.0,70.0,29.89,North,0,0.0,0.0,85,0.00,,,0.03,,2013-05-23 00:32:00,
2013-05-22 20:42:00,75.0,70.0,29.89,North,0,0.0,0.0,85,0.00,,,0.03,,2013-05-23 00:42:00,
2013-05-22 20:52:00,75.0,70.0,29.89,North,0,0.0,0.0,85,0.00,,,0.03,,2013-05-23 00:52:00,
2013-05-22 21:01:00,73.0,70.0,29.91,North,0,0.0,0.0,89,0.00,,,0.03,,2013-05-23 01:01:00,
2013-05-22 21:11:00,73.0,70.0,29.91,SE,136,2.0,9.0,89,0.01,,,0.04,,2013-05-23 01:11:00,
2013-05-22 21:22:00,73.0,70.0,29.91,SE,136,2.0,9.0,89,0.01,,,0.04,,2013-05-23 01:22:00,
2013-05-22 21:32:00,74.0,67.0,29.91,South,175,3.0,9.0,79,0.01,,,0.04,,2013-05-23 01:32:00,
2013-05-22 21:42:00,74.0,66.0,29.91,SSE,161,3.0,8.0,77,0.01,,,0.04,,2013-05-23 01:42:00,
2013-05-22 21:52:00,74.0,66.0,29.91,SSE,161,3.0,8.0,77,0.01,,,0.04,,2013-05-23 01:52:00,
2013-05-22 22:02:00,74.0,66.0,29.92,North,0,0.0,8.0,77,0.01,,,0.04,,2013-05-23 02:02:00,
2013-05-22 22:11:00,74.0,66.0,29.92,SSE,164,2.0,7.0,77,0.00,,,0.04,,2013-05-23 02:11:00,
2013-05-22 22:21:00,74.0,66.0,29.92,SSE,164,2.0,7.0,77,0.00,,,0.04,,2013-05-23 02:21:00,
2013-05-22 22:32:00,73.0,66.0,29.93,North,0,0.0,4.0,80,0.00,,,0.03,,2013-05-23 02:32:00,
2013-05-22 22:42:00,73.0,66.0,29.93,North,0,0.0,4.0,80,0.00,,,0.03,,2013-05-23 02:42:00,
2013-05-22 22:51:00,73.0,66.0,29.93,North,0,0.0,4.0,80,0.00,,,0.03,,2013-05-23 02:51:00,
2013-05-22 23:02:00,72.0,67.0,29.93,North,0,0.0,0.0,83,0.00,,,0.03,,2013-05-23 03:02:00,
2013-05-22 23:11:00,71.0,66.0,29.92,North,0,0.0,0.0,85,0.00,,,0.03,,2013-05-23 03:11:00,
2013-05-22 23:21:00,71.0,66.0,29.92,North,0,0.0,0.0,85,0.00,,,0.03,,2013-05-23 03:21:00,
2013-05-22 23:33:00,71.0,67.0,29.93,North,0,0.0,0.0,87,0.00,,,0.03,,2013-05-23 03:33:00,
2013-05-22 23:43:00,71.0,67.0,29.93,North,0,0.0,0.0,87,0.00,,,0.03,,2013-05-23 03:43:00,
2013-05-22 23:53:00,70.0,67.0,29.93,North,0,0.0,2.0,89,0.00,,,0.03,,2013-05-23 03:53:00,